Radiation Dose at Monitoring Post of Fukushima Daini Nuclear Power Station
Date,Time,MP-1(microSv/h),MP-2(microSv/h),MP-3(microSv/h),MP-4(microSv/h),MP-5(microSv/h),MP-6(microSv/h),MP-7(microSv/h),Wind Direction,Wind Velocity(m/s),Rain
2024/04/10,00:00,0.140,0.121,0.196,0.184,0.198,0.109,0.073,north-northwest,6.8,No
2024/04/10,00:10,0.139,0.122,0.196,0.185,0.198,0.109,0.072,north-northwest,7.5,No
2024/04/10,00:20,0.140,0.121,0.197,0.184,0.199,0.109,0.073,north-northwest,8.8,No
2024/04/10,00:30,0.140,0.122,0.197,0.185,0.200,0.109,0.072,north-northwest,8.3,No
2024/04/10,00:40,0.139,0.121,0.196,0.185,0.198,0.110,0.073,northwest,8.3,No
2024/04/10,00:50,0.140,0.122,0.197,0.184,0.200,0.110,0.072,northwest,9.2,No
2024/04/10,01:00,0.140,0.121,0.197,0.184,0.199,0.109,0.073,north-northwest,5.6,No
2024/04/10,01:10,0.140,0.122,0.197,0.185,0.200,0.109,0.073,northwest,6.8,No
2024/04/10,01:20,0.140,0.121,0.197,0.184,0.199,0.109,0.072,north-northwest,5.7,No
2024/04/10,01:30,0.140,0.121,0.197,0.184,0.199,0.109,0.074,northwest,7.8,No
2024/04/10,01:40,0.140,0.122,0.197,0.184,0.199,0.110,0.073,northwest,6.1,No
2024/04/10,01:50,0.140,0.121,0.198,0.185,0.200,0.110,0.073,north-northwest,2.1,No
2024/04/10,02:00,0.140,0.121,0.197,0.185,0.198,0.110,0.073,north-northwest,3.4,No
2024/04/10,02:10,0.140,0.121,0.197,0.185,0.198,0.109,0.072,north-northwest,6.0,No
2024/04/10,02:20,0.140,0.122,0.196,0.184,0.199,0.109,0.072,north-northwest,5.1,No
2024/04/10,02:30,0.140,0.121,0.198,0.184,0.199,0.110,0.073,north,5.9,No
2024/04/10,02:40,0.140,0.122,0.197,0.185,0.198,0.111,0.073,north,7.2,No
2024/04/10,02:50,0.140,0.121,0.197,0.184,0.199,0.110,0.073,north,4.6,No
2024/04/10,03:00,0.140,0.121,0.197,0.185,0.198,0.109,0.073,north-northwest,1.7,No
2024/04/10,03:10,0.139,0.122,0.196,0.186,0.199,0.109,0.073,north,2.2,No
2024/04/10,03:20,0.140,0.121,0.197,0.184,0.198,0.109,0.073,north-northwest,3.8,No
2024/04/10,03:30,0.140,0.122,0.197,0.185,0.199,0.110,0.073,north-northwest,4.8,No
2024/04/10,03:40,0.140,0.121,0.197,0.185,0.200,0.109,0.072,north-northwest,5.0,No
2024/04/10,03:50,0.139,0.121,0.198,0.185,0.200,0.109,0.073,north-northwest,5.4,No
2024/04/10,04:00,0.141,0.122,0.197,0.185,0.200,0.110,0.073,northwest,5.6,No
2024/04/10,04:10,0.139,0.121,0.197,0.185,0.200,0.109,0.073,north-northwest,4.1,No
2024/04/10,04:20,0.139,0.121,0.198,0.186,0.199,0.110,0.072,north,4.6,No
2024/04/10,04:30,0.140,0.122,0.197,0.186,0.199,0.109,0.073,north-northwest,5.8,No
2024/04/10,04:40,0.140,0.121,0.198,0.184,0.199,0.109,0.073,north-northwest,5.9,No
2024/04/10,04:50,0.140,0.122,0.198,0.186,0.198,0.110,0.072,north-northwest,6.3,No
2024/04/10,05:00,0.141,0.121,0.198,0.185,0.200,0.110,0.073,north-northwest,7.0,No
2024/04/10,05:10,0.141,0.122,0.197,0.186,0.199,0.110,0.073,northwest,6.8,No
2024/04/10,05:20,0.140,0.122,0.197,0.186,0.200,0.110,0.072,northwest,6.4,No
2024/04/10,05:30,0.141,0.122,0.197,0.185,0.199,0.110,0.073,northwest,8.2,No
2024/04/10,05:40,0.140,0.122,0.198,0.185,0.200,0.110,0.073,northwest,7.9,No
2024/04/10,05:50,0.140,0.122,0.198,0.186,0.198,0.110,0.073,north-northwest,8.2,No
2024/04/10,06:00,0.141,0.121,0.197,0.185,0.200,0.109,0.074,northwest,8.5,No
2024/04/10,06:10,0.141,0.122,0.198,0.186,0.200,0.110,0.073,north-northwest,7.0,No
2024/04/10,06:20,0.141,0.122,0.198,0.185,0.199,0.110,0.072,north-northwest,6.6,No
2024/04/10,06:30,0.140,0.121,0.198,0.184,0.199,0.110,0.072,northwest,6.5,No
2024/04/10,06:40,0.140,0.121,0.198,0.185,0.200,0.110,0.073,north-northwest,6.4,No
2024/04/10,06:50,0.141,0.121,0.198,0.185,0.200,0.110,0.072,north-northwest,4.7,No
2024/04/10,07:00,0.141,0.122,0.199,0.186,0.199,0.109,0.073,north-northwest,4.2,No
2024/04/10,07:10,0.141,0.121,0.198,0.184,0.199,0.110,0.072,north-northwest,5.0,No
2024/04/10,07:20,0.141,0.122,0.198,0.184,0.200,0.110,0.072,north-northwest,5.0,No
2024/04/10,07:30,0.140,0.122,0.197,0.186,0.199,0.110,0.073,north-northwest,3.6,No
2024/04/10,07:40,0.141,0.122,0.198,0.185,0.199,0.110,0.072,north-northwest,4.1,No
2024/04/10,07:50,0.140,0.122,0.196,0.184,0.200,0.110,0.073,north-northwest,4.2,No
2024/04/10,08:00,0.142,0.121,0.197,0.184,0.200,0.110,0.072,north-northwest,4.0,No
2024/04/10,08:10,0.141,0.122,0.196,0.184,0.200,0.110,0.073,north-northwest,3.7,No
2024/04/10,08:20,0.140,0.121,0.198,0.185,0.199,0.110,0.072,north-northwest,3.3,No
2024/04/10,08:30,0.142,0.121,0.197,0.185,0.201,0.110,0.073,north,3.5,No
2024/04/10,08:40,0.140,0.121,0.197,0.184,0.200,0.110,0.073,north-northwest,5.4,No
2024/04/10,08:50,0.141,0.122,0.198,0.184,0.199,0.110,0.072,north-northwest,4.8,No
2024/04/10,09:00,0.141,0.122,0.197,0.184,0.201,0.110,0.073,north,3.7,No
2024/04/10,09:10,0.140,0.121,0.199,0.185,0.200,0.110,0.073,north-northwest,4.2,No
2024/04/10,09:20,0.141,0.122,0.197,0.184,0.201,0.110,0.073,north,4.3,No
2024/04/10,09:30,0.141,0.121,0.197,0.186,0.199,0.111,0.073,north-northeast,5.8,No
2024/04/10,09:40,0.140,0.122,0.197,0.185,0.200,0.110,0.073,northeast,4.7,No
2024/04/10,09:50,0.140,0.122,0.198,0.186,0.200,0.110,0.073,northeast,6.1,No
2024/04/10,10:00,0.141,0.121,0.198,0.185,0.201,0.110,0.073,northeast,6.1,No
2024/04/10,10:10,0.141,0.122,0.200,0.186,0.202,0.110,0.073,northeast,5.1,No
2024/04/10,10:20,0.142,0.122,0.197,0.186,0.199,0.110,0.073,northeast,4.0,No
2024/04/10,10:30,0.140,0.122,0.199,0.187,0.201,0.111,0.073,northeast,4.5,No
2024/04/10,10:40,0.141,0.122,0.199,0.186,0.200,0.110,0.074,northeast,5.2,No
2024/04/10,10:50,0.140,0.122,0.199,0.186,0.202,0.110,0.073,northeast,4.9,No
2024/04/10,11:00,0.141,0.122,0.199,0.187,0.199,0.110,0.073,northeast,4.3,No
2024/04/10,11:10,0.140,0.121,0.199,0.186,0.201,0.110,0.073,northeast,4.6,No
2024/04/10,11:20,0.142,0.123,0.198,0.185,0.200,0.111,0.073,northeast,3.4,No
2024/04/10,11:30,0.141,0.122,0.199,0.186,0.201,0.110,0.073,northeast,4.4,No
2024/04/10,11:40,0.142,0.123,0.199,0.186,0.199,0.111,0.074,northeast,3.7,No
2024/04/10,11:50,0.142,0.122,0.200,0.187,0.202,0.110,0.074,northeast,4.5,No
2024/04/10,12:00,0.141,0.122,0.198,0.187,0.200,0.111,0.073,northeast,4.3,No
2024/04/10,12:10,0.141,0.122,0.199,0.187,0.201,0.111,0.073,northeast,4.0,No
2024/04/10,12:20,0.141,0.123,0.200,0.187,0.200,0.111,0.073,northeast,4.1,No
2024/04/10,12:30,0.141,0.122,0.200,0.187,0.201,0.110,0.073,north-northeast,3.4,No
2024/04/10,12:40,0.140,0.122,0.198,0.188,0.200,0.111,0.074,east-northeast,3.3,No
2024/04/10,12:50,0.143,0.122,0.201,0.187,0.201,0.111,0.073,north-northeast,3.4,No
2024/04/10,13:00,0.142,0.122,0.198,0.188,0.200,0.110,0.074,northeast,3.0,No
2024/04/10,13:10,0.142,0.123,0.200,0.186,0.202,0.111,0.073,northeast,3.0,No
2024/04/10,13:20,0.141,0.123,0.200,0.188,0.199,0.111,0.073,east-northeast,3.0,No
2024/04/10,13:30,0.142,0.122,0.200,0.186,0.203,0.111,0.074,east-northeast,2.9,No
2024/04/10,13:40,0.142,0.122,0.199,0.188,0.200,0.111,0.073,northeast,2.5,No
2024/04/10,13:50,0.141,0.123,0.200,0.187,0.202,0.111,0.072,east-northeast,2.3,No
2024/04/10,14:00,0.140,0.122,0.198,0.187,0.201,0.112,0.073,east,2.2,No
2024/04/10,14:10,0.142,0.122,0.200,0.188,0.201,0.111,0.073,east-northeast,2.9,No
2024/04/10,14:20,0.141,0.122,0.199,0.187,0.202,0.111,0.074,east,2.7,No
2024/04/10,14:30,0.141,0.122,0.201,0.188,0.199,0.110,0.073,east,2.6,No
2024/04/10,14:40,0.141,0.123,0.200,0.186,0.202,0.112,0.074,east,2.1,No
2024/04/10,14:50,0.140,0.122,0.200,0.189,0.200,0.111,0.073,east-southeast,2.7,No
2024/04/10,15:00,0.141,0.121,0.200,0.187,0.202,0.111,0.073,southeast,2.3,No
2024/04/10,15:10,0.141,0.122,0.201,0.189,0.202,0.111,0.073,east-southeast,2.3,No
2024/04/10,15:20,0.142,0.123,0.201,0.187,0.200,0.112,0.074,south-southeast,1.6,No
2024/04/10,15:30,0.141,0.123,0.202,0.187,0.202,0.111,0.073,southeast,2.4,No
2024/04/10,15:40,0.142,0.123,0.200,0.189,0.201,0.111,0.074,southeast,1.8,No
2024/04/10,15:50,0.141,0.123,0.201,0.188,0.203,0.110,0.074,southeast,2.1,No
2024/04/10,16:00,0.142,0.124,0.202,0.189,0.201,0.110,0.074,southeast,1.9,No
2024/04/10,16:10,0.142,0.123,0.201,0.189,0.202,0.112,0.073,southeast,1.9,No
2024/04/10,16:20,0.142,0.122,0.201,0.189,0.201,0.110,0.073,southeast,2.1,No
2024/04/10,16:30,0.142,0.124,0.201,0.189,0.201,0.112,0.074,southeast,2.8,No
2024/04/10,16:40,0.143,0.123,0.201,0.189,0.201,0.112,0.074,southeast,3.4,No
2024/04/10,16:50,0.142,0.122,0.201,0.190,0.202,0.111,0.073,south-southeast,3.0,No
2024/04/10,17:00,0.142,0.123,0.201,0.190,0.201,0.111,0.073,south-southeast,2.5,No
2024/04/10,17:10,0.142,0.123,0.201,0.190,0.200,0.111,0.074,south-southeast,2.5,No
2024/04/10,17:20,0.142,0.123,0.201,0.189,0.201,0.112,0.073,south-southeast,2.3,No
2024/04/10,17:30,0.142,0.124,0.201,0.189,0.202,0.111,0.074,south,2.7,No
2024/04/10,17:40,0.142,0.123,0.201,0.188,0.201,0.112,0.073,south-southeast,2.4,No
2024/04/10,17:50,0.142,0.123,0.201,0.190,0.204,0.112,0.073,south,3.2,No
2024/04/10,18:00,0.142,0.123,0.201,0.189,0.202,0.112,0.073,south-southeast,3.2,No
2024/04/10,18:10,0.142,0.123,0.201,0.188,0.203,0.111,0.074,south-southeast,4.0,No
2024/04/10,18:20,0.142,0.123,0.202,0.189,0.202,0.112,0.073,south,3.5,No
2024/04/10,18:30,0.143,0.123,0.201,0.190,0.202,0.113,0.073,south,3.6,No
2024/04/10,18:40,0.142,0.122,0.200,0.189,0.203,0.111,0.073,south,3.7,No
2024/04/10,18:50,0.142,0.123,0.201,0.189,0.202,0.112,0.074,south,4.4,No
2024/04/10,19:00,0.143,0.124,0.202,0.189,0.202,0.112,0.074,south,4.5,No
2024/04/10,19:10,0.142,0.123,0.201,0.188,0.202,0.112,0.073,south,4.8,No
2024/04/10,19:20,0.142,0.122,0.202,0.189,0.201,0.112,0.074,south,4.8,No
2024/04/10,19:30,0.143,0.124,0.201,0.189,0.201,0.111,0.074,south,4.0,No
2024/04/10,19:40,0.143,0.123,0.202,0.189,0.201,0.113,0.073,south,5.0,No
2024/04/10,19:50,0.143,0.123,0.201,0.189,0.202,0.113,0.073,south,5.7,No
2024/04/10,20:00,0.142,0.123,0.202,0.190,0.203,0.111,0.073,south,5.5,No
2024/04/10,20:10,0.142,0.123,0.201,0.190,0.203,0.112,0.074,south,5.7,No
2024/04/10,20:20,0.142,0.124,0.202,0.189,0.202,0.112,0.074,south,5.1,No
2024/04/10,20:30,0.142,0.123,0.201,0.189,0.202,0.112,0.074,south-southwest,5.9,No
2024/04/10,20:40,0.142,0.124,0.201,0.189,0.201,0.112,0.073,south-southwest,5.7,No
2024/04/10,20:50,0.142,0.123,0.202,0.189,0.201,0.112,0.073,south-southwest,5.4,No
2024/04/10,21:00,0.142,0.123,0.202,0.190,0.202,0.112,0.074,south-southwest,6.5,No
2024/04/10,21:10,0.143,0.123,0.202,0.189,0.202,0.112,0.074,south-southwest,5.1,No
2024/04/10,21:20,0.143,0.124,0.201,0.189,0.202,0.112,0.073,south-southwest,5.4,No
2024/04/10,21:30,0.142,0.123,0.201,0.189,0.201,0.112,0.073,south-southwest,5.9,No
2024/04/10,21:40,0.142,0.123,0.202,0.189,0.201,0.112,0.074,south,5.6,No
2024/04/10,21:50,0.142,0.123,0.202,0.188,0.201,0.112,0.073,south,6.0,No
2024/04/10,22:00,0.142,0.123,0.202,0.189,0.203,0.112,0.074,south-southwest,5.4,No
2024/04/10,22:10,0.143,0.123,0.201,0.189,0.202,0.111,0.074,south,6.1,No
2024/04/10,22:20,0.142,0.123,0.201,0.188,0.201,0.112,0.074,south,6.4,No
2024/04/10,22:30,0.143,0.123,0.202,0.188,0.202,0.112,0.074,south,6.5,No
2024/04/10,22:40,0.142,0.123,0.202,0.189,0.201,0.112,0.074,south,7.0,No
2024/04/10,22:50,0.142,0.123,0.203,0.189,0.201,0.112,0.073,south-southwest,7.8,No
2024/04/10,23:00,0.142,0.123,0.202,0.190,0.202,0.112,0.074,south,6.6,No
2024/04/10,23:10,0.142,0.124,0.202,0.189,0.201,0.112,0.074,south-southwest,6.3,No
2024/04/10,23:20,0.143,0.123,0.202,0.189,0.202,0.112,0.073,south-southwest,6.9,No
2024/04/10,23:30,0.142,0.123,0.202,0.189,0.202,0.112,0.074,south-southwest,6.0,No
2024/04/10,23:40,0.142,0.124,0.202,0.188,0.202,0.112,0.074,south-southwest,5.9,No
2024/04/10,23:50,0.142,0.123,0.201,0.189,0.202,0.112,0.073,south-southwest,6.0,No
